GW5006 Weather Reports


time (UTC)temp
F
wind
direction
speed
knots
gust
knots
rain 1hr
in
rain 24hr
in
rain mn
in
humidity
%
barometer
mb
20260502162054 49 256 1.7 2.6 0.00 0.00 0.00 46 1025.6
20260502161550 49 267 2.6 3.5 0.00 0.00 0.00 48 1025.5
20260502161048 48 265 3.5 3.5 0.00 0.00 0.00 47 1025.4
20260502160546 47 259 2.6 2.6 0.00 0.00 0.00 48 1025.4
20260502151959 41 163 1.7 2.6 0.00 0.00 0.00 53 1025.8
20260502151455 40 281 1.7 1.7 0.00 0.00 0.00 54 1025.8
20260502150953 40 278 0.0 1.7 0.00 0.00 0.00 55 1025.8
20260502150450 40 311 1.7 2.6 0.00 0.00 0.00 55 1025.9
20260502130329 33 272 0.9 2.6 0.00 0.00 0.00 65 1025.5
20260502123815 33 229 1.7 2.6 0.00 0.00 0.00 64 1025.4
20260502123312 33 246 1.7 2.6 0.00 0.00 0.00 64 1025.3
20260502122809 33 0 0.0 1.7 0.00 0.00 0.00 64 1025.4
20260502122306 34 343 0.0 3.5 0.00 0.00 0.00 60 1025.4
20260502121803 33 346 1.7 3.5 0.00 0.00 0.00 63 1025.4
20260502121300 34 330 1.7 2.6 0.00 0.00 0.00 62 1025.3
20260502120757 34 341 1.7 2.6 0.00 0.00 0.00 64 1025.3
20260502120254 34 332 1.7 1.7 0.00 0.00 0.00 63 1025.4
20260502115752 33 348 0.0 1.7 0.00 0.00 0.00 62 1025.2
20260502115248 33 15 0.0 1.7 0.00 0.00 0.00 63 1025.3
20260502114744 33 332 0.9 1.7 0.00 0.00 0.00 66 1025.2
20260502114241 33 299 0.0 1.7 0.00 0.00 0.00 63 1025.2
20260502113738 33 220 1.7 3.5 0.00 0.00 0.00 63 1025.3
20260502113236 33 278 1.7 3.5 0.00 0.00 0.00 66 1025.2
20260502112734 33 274 0.0 2.6 0.00 0.00 0.00 63 1025.2
20260502112231 33 271 1.7 2.6 0.00 0.00 0.00 64 1025.2
20260502111728 34 304 1.7 3.5 0.00 0.00 0.00 65 1025.3
20260502111226 34 266 1.7 1.7 0.00 0.00 0.00 64 1025.4
20260502110723 34 309 0.9 1.7 0.00 0.00 0.00 66 1025.2
20260502110221 35 261 0.0 2.6 0.00 0.00 0.00 64 1025.2
20260502105719 35 309 1.7 1.7 0.00 0.00 0.00 62 1025.3
20260502105215 35 281 0.9 1.7 0.00 0.00 0.00 63 1025.3
20260502104713 36 293 0.9 1.7 0.00 0.00 0.00 58 1025.5
20260502104210 36 295 0.0 1.7 0.00 0.00 0.00 58 1025.4
20260502103707 35 336 0.0 0.9 0.00 0.00 0.00 61 1025.4
20260502103205 35 302 0.9 1.7 0.00 0.00 0.00 60 1025.3
20260502102702 35 284 1.7 1.7 0.00 0.00 0.00 58 1025.4
20260502102158 35 295 0.0 1.7 0.00 0.00 0.00 63 1025.3
20260502101656 35 299 0.0 0.9 0.00 0.00 0.00 60 1025.2
20260502101154 35 287 0.9 1.7 0.00 0.00 0.00 64 1025.3
20260502100653 35 302 0.9 1.7 0.00 0.00 0.00 61 1025.2
20260502100150 35 280 1.7 1.7 0.00 0.00 0.00 63 1025.2
20260502091125 38 293 0.0 1.7 0.00 0.00 0.00 58 1024.9
20260502090621 39 297 0.9 0.9 0.00 0.00 0.00 56 1025.0
20260502090119 39 235 0.9 1.7 0.00 0.00 0.00 53 1025.0
20260502071521 41 302 0.0 0.9 0.00 0.00 0.00 50 1024.9
20260502071020 41 277 0.0 0.9 0.00 0.00 0.00 51 1025.0
20260502070517 41 258 0.9 1.7 0.00 0.00 0.00 51 1024.9
20260502070015 42 286 1.7 1.7 0.00 0.00 0.00 51 1024.9
20260502065513 42 290 0.0 0.9 0.00 0.00 0.00 47 1025.0
20260502065011 42 311 0.0 0.0 0.00 0.00 0.00 48 1025.0
20260502064509 42 297 0.0 0.9 0.00 0.00 0.00 49 1024.8
20260502064006 42 310 0.0 1.7 0.00 0.00 0.00 49 1024.6
20260502063504 42 314 0.0 0.9 0.00 0.00 0.00 47 1024.7
20260502063001 42 296 0.0 0.0 0.00 0.00 0.00 49 1024.8
20260502062457 42 280 0.0 0.9 0.00 0.00 0.00 48 1024.7
20260502061956 42 304 0.0 0.9 0.00 0.00 0.00 49 1024.7
20260502061454 43 283 0.0 0.9 0.00 0.00 0.00 47 1024.7
20260502060950 43 283 0.0 0.0 0.00 0.00 0.00 48 1024.7
20260502060445 43 293 0.0 0.9 0.00 0.00 0.00 49 1024.7
20260502055942 43 300 0.9 1.7 0.00 0.00 0.00 47 1024.7
20260502055441 43 269 0.0 0.9 0.00 0.00 0.00 47 1024.6
20260502054940 43 286 0.0 0.0 0.00 0.00 0.00 46 1024.6
20260502054438 43 279 0.0 0.9 0.00 0.00 0.00 47 1024.7
20260502053935 44 288 0.0 0.9 0.00 0.00 0.00 47 1024.6
20260502053432 44 287 0.0 0.0 0.00 0.00 0.00 47 1024.7
20260502052930 44 269 0.0 0.9 0.00 0.00 0.00 47 1024.6
20260502052428 43 293 0.0 0.0 0.00 0.00 0.00 45 1024.6
20260502051926 44 306 0.0 1.7 0.00 0.00 0.00 48 1024.4
20260502051423 44 244 0.9 1.7 0.00 0.00 0.00 45 1024.4
20260502050920 44 310 0.0 0.9 0.00 0.00 0.00 44 1024.4
20260502050416 44 306 0.0 0.0 0.00 0.00 0.00 44 1024.6
20260502045914 44 302 0.0 1.7 0.00 0.00 0.00 44 1024.4
20260502045411 44 321 0.0 0.9 0.00 0.00 0.00 43 1024.3
20260502044908 44 306 0.0 1.7 0.00 0.00 0.00 48 1024.4
20260502044403 44 283 0.0 1.7 0.00 0.00 0.00 44 1024.4
20260502043900 44 269 0.0 1.7 0.00 0.00 0.00 46 1024.3
20260502043358 45 281 0.9 1.7 0.00 0.00 0.00 44 1024.1
20260502042857 45 278 0.9 0.9 0.00 0.00 0.00 45 1024.4
20260502042355 45 303 0.9 0.9 0.00 0.00 0.00 45 1024.3
20260502041852 45 277 0.0 1.7 0.00 0.00 0.00 44 1024.3
20260502041349 45 253 0.9 1.7 0.00 0.00 0.00 43 1024.3
20260502040846 46 251 1.7 2.6 0.00 0.00 0.00 44 1024.3
20260502040343 47 273 0.9 0.9 0.00 0.00 0.00 41 1023.9
20260502035839 47 269 0.0 1.7 0.00 0.00 0.00 42 1023.9
20260502035336 48 248 0.0 1.7 0.00 0.00 0.00 39 1024.1
20260502034833 48 238 0.9 1.7 0.00 0.00 0.00 38 1023.6
20260502034332 48 268 0.9 0.9 0.00 0.00 0.00 38 1023.8
20260502033830 48 275 0.9 1.7 0.00 0.00 0.00 40 1023.7
20260502033327 49 256 0.9 1.7 0.00 0.00 0.00 38 1023.6
20260502032824 49 235 0.0 0.9 0.00 0.00 0.00 37 1023.6
20260502032320 49 295 0.0 0.9 0.00 0.00 0.00 37 1023.3
20260502031818 49 299 0.0 0.9 0.00 0.00 0.00 38 1023.5
20260502031316 50 283 0.0 0.9 0.00 0.00 0.00 39 1023.3
20260502030814 50 280 0.9 1.7 0.00 0.00 0.00 37 1023.5
20260502030312 51 259 0.9 1.7 0.00 0.00 0.00 35 1023.2
20260502025809 51 260 0.9 1.7 0.00 0.00 0.00 34 1023.2
20260502025307 51 262 0.9 0.9 0.00 0.00 0.00 35 1023.1
20260502024804 51 269 0.0 0.9 0.00 0.00 0.00 34 1023.0
20260502024302 51 269 0.0 1.7 0.00 0.00 0.00 37 1022.9
20260502023800 52 263 1.7 1.7 0.00 0.00 0.00 34 1022.9
20260502023257 52 254 0.0 0.9 0.00 0.00 0.00 35 1022.7
20260502022755 51 293 0.0 0.9 0.00 0.00 0.00 37 1023.1
20260502022250 52 306 0.0 1.7 0.00 0.00 0.00 37 1023.0
20260502021748 53 309 0.0 1.7 0.00 0.00 0.00 33 1022.6
20260502021245 53 294 0.9 0.9 0.00 0.00 0.00 32 1022.9
20260502020742 54 288 0.9 0.9 0.00 0.00 0.00 32 1022.9
20260502020240 54 296 0.0 1.7 0.00 0.00 0.00 32 1022.7
20260502015737 55 272 1.7 1.7 0.00 0.00 0.00 28 1023.0
20260502015233 55 229 0.0 1.7 0.00 0.00 0.00 28 1022.7
20260502014731 56 304 0.0 1.7 0.00 0.00 0.00 30 1022.6
20260502014228 57 247 0.9 2.6 0.00 0.00 0.00 27 1022.7
20260502013724 58 283 0.9 1.7 0.00 0.00 0.00 30 1022.7
20260502013219 58 304 1.7 3.5 0.00 0.00 0.00 30 1022.6
20260502012717 59 305 0.0 3.5 0.00 0.00 0.00 27 1022.6
20260502012215 59 256 2.6 3.5 0.00 0.00 0.00 24 1022.6
20260502011711 60 296 1.7 1.7 0.00 0.00 0.00 23 1022.5
20260502011207 60 271 1.7 1.7 0.00 0.00 0.00 24 1022.6
20260502010705 60 267 1.7 2.6 0.00 0.00 0.00 26 1022.7
20260502010201 62 223 0.9 2.6 0.00 0.00 0.00 22 1022.7
20260502005658 61 322 1.7 2.6 0.00 0.00 0.00 26 1022.9
20260502005156 61 250 2.6 3.5 0.00 0.00 0.00 24 1022.9
20260502004652 60 258 1.7 2.6 0.00 0.00 0.00 24 1022.7
20260502004149 60 245 2.6 3.5 0.00 0.00 0.00 22 1022.9
20260502003646 60 277 1.7 3.5 0.00 0.00 0.00 23 1022.9
20260502003144 60 236 1.7 3.5 0.00 0.00 0.00 23 1022.7
20260502002639 61 249 2.6 3.5 0.00 0.00 0.00 25 1022.9
20260502002137 60 242 0.9 2.6 0.00 0.00 0.00 21 1022.7
20260502001635 61 256 3.5 5.2 0.00 0.00 0.00 22 1022.7
20260502001132 62 275 1.7 3.5 0.00 0.00 0.00 23 1022.9
20260502000630 62 236 0.9 2.6 0.00 0.00 0.00 21 1023.0
20260502000127 62 245 3.5 5.2 0.00 0.00 0.00 21 1022.9
20260501235623 62 256 2.6 5.2 0.00 0.00 0.00 24 1022.9
20260501235119 64 285 0.9 3.5 0.00 0.00 0.00 22 1023.0
20260501234614 65 290 2.6 2.6 0.00 0.00 0.00 21 1022.9
20260501234112 65 308 0.9 3.5 0.00 0.00 0.00 22 1022.7
20260501233610 65 311 2.6 3.5 0.00 0.00 0.00 22 1022.9
20260501233108 63 272 1.7 3.5 0.00 0.00 0.00 23 1023.0
20260501232603 62 247 0.9 4.3 0.00 0.00 0.00 22 1023.0
20260501232101 62 291 2.6 4.3 0.00 0.00 0.00 23 1022.9
20260501231558 62 237 3.5 4.3 0.00 0.00 0.00 26 1022.7
20260501231056 61 256 2.6 3.5 0.00 0.00 0.00 25 1023.0
20260501230555 61 245 3.5 5.2 0.00 0.00 0.00 24 1023.1
20260501230052 60 221 1.7 4.3 0.00 0.00 0.00 26 1023.1
20260501225549 60 242 2.6 7.8 0.00 0.00 0.00 25 1023.1
20260501225046 60 254 2.6 3.5 0.00 0.00 0.00 25 1022.9
20260501224543 61 235 5.2 5.2 0.00 0.00 0.00 28 1023.0
20260501224040 60 252 4.3 5.2 0.00 0.00 0.00 27 1023.0
20260501223537 60 298 2.6 3.5 0.00 0.00 0.00 28 1023.3
20260501223033 60 260 3.5 4.3 0.00 0.00 0.00 27 1023.1
20260501222529 59 281 2.6 4.3 0.00 0.00 0.00 29 1023.2
20260501222026 59 253 2.6 6.1 0.00 0.00 0.00 29 1023.2
20260501221523 60 286 3.5 3.5 0.00 0.00 0.00 29 1023.3
20260501221021 60 254 2.6 5.2 0.00 0.00 0.00 27 1023.3
20260501220518 59 273 1.7 4.3 0.00 0.00 0.00 28 1023.5
20260501220015 59 236 3.5 4.3 0.00 0.00 0.00 29 1023.5
20260501215511 60 251 3.5 5.2 0.00 0.00 0.00 28 1023.3
20260501215006 59 250 3.5 7.8 0.00 0.00 0.00 28 1023.3
20260501214502 61 340 2.6 3.5 0.00 0.00 0.00 28 1023.6
20260501213958 60 266 3.5 5.2 0.00 0.00 0.00 31 1023.5
20260501213455 61 252 1.7 3.5 0.00 0.00 0.00 28 1023.6
20260501212950 60 255 2.6 7.0 0.00 0.00 0.00 29 1023.8
20260501212447 61 247 3.5 7.0 0.00 0.00 0.00 28 1023.8
20260501211944 62 280 3.5 3.5 0.00 0.00 0.00 27 1023.7
20260501211441 60 252 1.7 4.3 0.00 0.00 0.00 28 1023.8
20260501210939 60 216 0.0 3.5 0.00 0.00 0.00 29 1023.9
20260501210435 61 237 4.3 5.2 0.00 0.00 0.00 29 1024.1
20260501205932 60 275 4.3 4.3 0.00 0.00 0.00 29 1023.9
20260501205429 58 250 4.3 5.2 0.00 0.00 0.00 29 1024.1
20260501204926 59 258 5.2 7.0 0.00 0.00 0.00 32 1023.9
20260501204421 58 244 4.3 5.2 0.00 0.00 0.00 31 1024.2
20260501203918 57 250 3.5 4.3 0.00 0.00 0.00 33 1024.1
20260501203415 58 262 2.6 7.0 0.00 0.00 0.00 33 1024.2
20260501202913 57 262 3.5 3.5 0.00 0.00 0.00 34 1024.2
20260501202409 57 266 2.6 4.3 0.00 0.00 0.00 33 1024.3
20260501201906 56 284 1.7 3.5 0.00 0.00 0.00 34 1024.2
20260501201403 56 272 2.6 7.0 0.00 0.00 0.00 35 1024.2
20260501200859 56 284 1.7 3.5 0.00 0.00 0.00 34 1024.2
20260501200356 56 261 2.6 4.3 0.00 0.00 0.00 35 1024.2
20260501195854 55 271 4.3 6.1 0.00 0.00 0.00 37 1024.4
20260501195349 56 277 0.9 2.6 0.00 0.00 0.00 36 1024.6
20260501194846 55 330 1.7 3.5 0.00 0.00 0.00 39 1024.6
20260501194342 55 271 1.7 6.1 0.00 0.00 0.00 39 1024.6
20260501193838 54 184 0.0 1.7 0.00 0.00 0.00 37 1024.6
20260501193337 55 282 2.6 3.5 0.00 0.00 0.00 39 1024.6
20260501192834 54 243 4.3 4.3 0.00 0.00 0.00 40 1024.3
20260501192331 53 127 0.0 4.3 0.00 0.00 0.00 38 1024.6
20260501191828 53 263 3.5 5.2 0.00 0.00 0.00 40 1024.6
20260501191326 53 261 3.5 4.3 0.00 0.00 0.00 40 1024.8
20260501190822 53 252 4.3 5.2 0.00 0.00 0.00 39 1024.8
20260501190318 53 279 2.6 5.2 0.00 0.00 0.00 39 1024.9
20260501185813 53 305 2.6 3.5 0.00 0.00 0.00 40 1025.2
20260501185310 52 263 3.5 4.3 0.00 0.00 0.00 43 1024.9
20260501184806 51 318 1.7 6.1 0.00 0.00 0.00 42 1024.9
20260501184302 51 237 4.3 5.2 0.00 0.00 0.00 41 1024.9
20260501183758 50 246 2.6 7.0 0.00 0.00 0.00 43 1025.0
20260501183255 51 247 3.5 6.1 0.00 0.00 0.00 41 1025.2
20260501182751 51 296 1.7 4.3 0.00 0.00 0.00 43 1025.0
20260501182248 51 296 2.6 4.3 0.00 0.00 0.00 41 1024.9
20260501181745 50 254 4.3 6.1 0.00 0.00 0.00 42 1025.3
20260501181242 49 325 1.7 4.3 0.00 0.00 0.00 42 1025.0
20260501180740 49 247 2.6 4.3 0.00 0.00 0.00 44 1025.4
20260501180235 50 237 2.6 4.3 0.00 0.00 0.00 42 1025.3
20260501175732 49 249 5.2 5.2 0.00 0.00 0.00 45 1025.5
20260501175230 49 317 1.7 4.3 0.00 0.00 0.00 44 1025.3
20260501174726 50 232 4.3 5.2 0.00 0.00 0.00 44 1025.5
20260501174223 48 258 0.0 4.3 0.00 0.00 0.00 45 1025.5
20260501173721 48 246 1.7 5.2 0.00 0.00 0.00 46 1025.6
20260501173218 48 245 5.2 5.2 0.00 0.00 0.00 44 1025.6
20260501172714 48 274 1.7 5.2 0.00 0.00 0.00 48 1025.5
20260501172209 48 259 4.3 7.8 0.00 0.00 0.00 46 1025.6
20260501171705 47 276 0.9 3.5 0.00 0.00 0.00 48 1025.8
20260501171202 47 269 2.6 4.3 0.00 0.00 0.00 49 1025.9
20260501170659 46 250 1.7 3.5 0.00 0.00 0.00 49 1025.8
20260501170156 46 299 0.9 3.5 0.00 0.00 0.00 53 1025.8
20260501165654 46 280 2.6 2.6 0.00 0.00 0.00 51 1025.9
20260501165151 45 271 1.7 5.2 0.00 0.00 0.00 55 1026.0
20260501164649 45 239 4.3 5.2 0.00 0.00 0.00 54 1025.8
20260501164145 44 258 2.6 4.3 0.00 0.00 0.00 55 1025.9
20260501163642 45 280 1.7 4.3 0.00 0.00 0.00 57 1026.0
20260501163139 44 325 0.0 2.6 0.00 0.00 0.00 56 1025.8
20260501162634 44 266 2.6 3.5 0.00 0.00 0.00 57 1025.8